Wind_Speed
5 3 2 2 5 6 5 6 8 7 6 7 7 7 7 8 9 9 8 9 10 10 9 9 9 10 10 10 10 10 9 9 9 10 10 10 10 8 8 8 9 9 9 9
6 7 5 6 8 7 6 7 9 8 7 7 7 7 7 8 8 10 10 10 10 9 9 9 9 10 11 11 11 11 11 10 11 11 11 10 9 9 10 10 10 10 11 10
8 8 7 8 8 8 8 8 9 10 9 8 8 9 9 10 9 10 11 11 11 10 10 10 10 10 11 11 11 11 11 11 12 12 12 11 10 10 11 11 11 11 12 12
10 10 10 10 10 8 9 9 9 9 9 9 10 14 12 11 10 11 11 11 11 11 10 10 11 11 11 11 12 12 12 12 12 12 12 12 12 11 12 12 12 12 12 13
11 12 12 12 12 11 10 9 9 9 9 9 10 13 14 13 13 12 10 11 12 11 11 11 11 12 12 12 12 13 13 14 13 13 13 13 12 12 13 13 13 13 14 14
13 13 14 14 14 12 11 10 11 11 11 13 11 13 16 14 16 15 11 12 13 13 13 13 13 13 14 14 13 13 14 14 14 13 14 14 13 14 14 14 14 15 15 15
13 13 15 15 14 12 12 11 11 11 12 13 13 13 16 17 17 17 14 14 14 14 14 15 15 15 15 15 15 14 14 14 14 14 14 15 15 15 16 16 16 16 16 16
14 15 14 16 16 15 14 13 13 14 13 13 14 14 17 19 19 18 18 17 16 16 15 15 15 16 15 15 16 15 15 15 14 14 15 15 15 16 17 17 18 18 18 18
15 15 14 17 17 17 16 15 15 17 16 15 17 18 21 20 19 19 19 19 18 17 17 17 17 16 16 16 17 17 16 16 16 16 16 16 16 17 17 18 19 19 20 20
16 17 15 17 17 16 16 16 16 16 17 17 18 19 22 22 21 21 21 20 19 19 19 20 19 18 18 18 18 18 17 17 17 17 17 17 18 18 19 19 19 20 20 21
19 18 17 17 18 18 18 17 17 17 17 17 18 20 21 22 22 22 22 21 21 20 20 20 21 20 19 18 19 19 19 19 19 18 18 19 19 19 20 20 20 20 20 20
20 19 19 18 20 21 20 19 18 18 19 19 19 22 22 23 24 23 22 22 22 22 21 21 21 22 22 21 20 20 20 20 20 20 20 20 20 20 21 21 21 20 21 21
21 20 19 18 19 21 20 20 19 19 20 20 21 23 23 22 24 24 24 25 24 23 23 21 22 22 23 22 21 20 21 21 21 21 21 21 21 21 21 21 21 22 22 22
22 21 21 20 18 18 20 20 20 20 20 22 23 24 26 27 27 27 25 24 23 23 24 23 23 23 22 21 21 21 21 21 22 22 22 23 22 22 22 22 22 22 23 23
23 23 23 23 21 19 21 22 22 23 22 23 24 25 26 29 30 29 27 25 25 25 25 24 24 23 22 22 21 21 22 22 22 22 22 23 23 22 22 22 23 22 23 24
24 24 25 24 23 23 23 23 23 23 23 24 24 26 25 29 30 29 28 28 27 27 27 26 25 24 23 23 22 22 22 22 23 23 23 24 24 23 22 23 22 22 24 24
24 24 25 24 24 23 25 24 23 24 24 25 25 26 27 30 33 31 30 29 29 29 28 27 26 25 24 23 23 23 23 23 23 23 24 25 24 23 23 23 23 24 24 24
26 26 25 24 24 26 26 23 24 26 25 27 28 28 30 31 32 32 31 30 30 28 29 28 26 26 26 25 24 24 23 24 24 24 24 25 25 25 24 23 23 24 24 25
27 27 26 25 24 26 27 27 26 26 27 28 30 29 31 31 31 30 29 30 31 29 28 29 28 28 27 27 26 26 26 25 25 25 26 26 27 26 25 25 25 25 25 25
28 28 28 28 27 27 29 28 26 26 29 29 30 31 31 31 31 31 30 29 29 30 30 30 29 29 29 28 28 27 27 27 27 27 27 27 27 26 26 26 26 26 25 24
27 28 28 28 29 30 30 28 26 28 30 30 32 32 32 32 32 32 31 30 29 29 30 31 31 30 30 29 28 28 28 28 27 27 28 28 27 27 27 26 26 26 26 26
28 27 29 29 30 32 31 29 28 30 30 30 32 32 32 32 32 32 31 30 30 30 30 30 30 30 30 30 29 29 29 28 28 28 28 28 28 28 28 27 26 26 27 26
30 28 27 28 30 31 30 30 30 31 31 31 31 31 31 31 31 30 30 30 31 31 31 30 30 30 30 30 30 29 29 29 28 28 28 29 29 29 28 28 28 27 27 26
28 27 29 29 30 30 30 29 30 32 32 32 31 30 30 29 30 30 30 30 30 30 30 31 31 30 30 30 30 30 29 29 28 28 28 28 28 29 29 28 28 28 27 27
29 30 30 30 29 29 29 30 31 31 31 29 30 31 31 30 30 29 30 30 29 29 30 30 30 30 30 30 30 29 29 29 29 29 29 29 29 29 29 28 27 27 27 27
29 28 28 28 28 30 30 31 30 31 30 30 31 32 31 31 31 31 30 31 30 30 29 29 30 30 30 31 31 30 30 29 29 30 29 29 29 29 29 29 28 27 26 25
Wind_Direction
214 220 221 253 246 239 258 266 273 282 297 297 313 313 315 317 322 322 329 331 334 337 337 338 339 340 340 338 335 331 329 322 321 324 323 319 315 313 312 310 312 312 309 301
217 238 235 237 235 247 259 270 276 282 289 288 296 300 299 302 315 320 326 326 327 332 334 333 335 335 336 337 334 330 325 319 316 316 318 317 316 315 313 310 312 311 306 302
237 248 247 256 253 247 251 261 268 275 280 279 292 301 300 300 305 310 314 318 318 323 325 326 328 331 331 331 329 328 325 317 312 312 315 313 314 312 311 308 307 307 304 302
236 244 248 256 265 249 252 261 266 273 285 282 285 285 288 290 294 297 306 314 313 313 319 322 323 324 324 325 325 324 322 318 316 318 312 310 308 308 307 305 304 304 303 301
236 241 248 253 254 254 250 256 265 268 272 275 274 283 285 292 293 288 293 304 309 311 311 315 315 316 317 319 320 320 319 317 317 314 311 309 305 306 306 304 301 300 300 300
241 247 253 255 256 255 254 260 268 270 273 274 272 278 281 288 293 294 293 302 305 305 306 308 310 311 312 314 316 317 317 316 315 311 308 307 304 303 305 303 300 299 300 299
246 252 257 262 261 261 262 273 276 274 273 277 285 281 275 286 290 294 299 300 299 299 303 305 308 310 311 312 313 313 314 313 313 310 306 305 304 302 303 303 300 298 297 297
254 254 250 255 259 257 254 255 264 271 272 269 271 267 273 281 286 290 292 294 299 303 302 300 302 306 309 310 312 312 311 311 310 310 306 302 303 300 300 299 299 297 295 293
250 253 255 264 266 260 257 252 255 265 269 267 266 269 272 274 279 283 286 289 293 295 297 297 299 302 305 307 309 310 309 308 307 309 306 302 299 299 297 297 298 298 294 291
250 253 251 259 269 270 265 257 255 255 263 268 271 271 275 280 280 286 291 290 291 292 292 294 296 300 301 302 305 307 307 306 308 308 305 302 300 300 298 298 299 298 294 291
253 252 253 254 258 261 262 263 260 254 252 263 271 276 280 280 278 281 286 288 289 290 292 293 293 295 299 300 302 303 302 303 303 304 304 301 299 297 297 297 298 297 295 292
251 249 251 253 256 258 261 260 262 265 261 259 264 267 271 277 280 280 284 285 285 287 288 290 292 294 296 296 296 298 297 298 299 299 301 302 300 297 297 297 299 299 296 293
250 248 252 255 253 257 259 258 257 261 265 262 262 269 275 277 280 280 280 281 284 286 285 287 288 291 293 293 292 292 292 294 295 296 297 298 300 300 301 300 300 299 299 297
248 247 247 250 250 255 261 263 261 262 261 262 262 266 272 274 277 278 278 280 285 286 285 284 286 288 290 290 289 290 291 292 293 293 294 297 299 300 302 302 300 300 300 300
249 249 250 249 250 253 255 255 259 262 261 260 263 265 267 271 275 275 277 281 285 284 284 285 288 289 287 286 286 287 289 293 295 296 296 297 299 300 300 300 300 299 301 300
254 252 252 253 252 251 255 254 255 260 262 261 262 265 267 269 274 278 279 281 281 282 282 283 285 288 288 284 283 284 286 290 293 294 296 298 298 299 298 297 299 300 301 299
253 256 256 254 255 256 255 253 257 261 262 263 262 265 266 269 273 277 278 279 281 282 280 280 282 284 285 284 283 283 286 289 292 295 297 300 299 297 295 295 297 299 300 298
253 253 253 254 256 257 255 256 259 259 262 264 266 266 266 268 273 275 277 277 278 278 278 280 281 281 282 282 283 285 287 288 292 294 295 297 299 299 297 296 298 299 300 299
252 254 253 252 253 257 260 258 259 261 263 265 267 268 269 271 274 274 275 276 277 276 277 279 279 279 280 281 281 283 285 287 289 291 294 296 297 297 298 297 298 299 299 300
250 252 254 254 253 254 258 264 266 266 266 267 269 269 270 271 271 273 274 276 275 274 277 278 277 277 279 280 281 281 282 284 286 288 290 293 295 296 296 296 297 297 298 300
251 252 254 255 256 257 260 264 268 268 268 270 270 270 271 271 271 273 274 275 275 276 276 276 277 278 278 278 280 281 282 283 284 287 289 291 293 294 293 293 294 296 296 296
252 253 255 256 254 255 261 263 265 268 270 271 271 271 271 271 270 271 271 272 274 275 277 278 277 277 277 277 278 280 281 281 283 285 287 289 290 290 291 291 292 295 295 294
250 250 254 255 257 260 262 262 265 270 271 271 271 272 271 271 270 270 270 270 270 272 275 276 277 277 277 277 277 278 278 279 280 283 285 286 288 289 291 292 292 293 293 293
252 250 251 253 255 257 259 262 265 268 271 273 273 273 271 271 271 273 273 272 270 272 274 275 276 277 277 276 276 276 276 277 278 281 283 286 288 289 290 292 292 291 291 292
247 249 250 253 256 257 260 262 264 267 269 272 274 275 275 274 273 272 272 273 274 273 274 275 276 277 278 276 275 276 276 276 277 279 282 285 287 288 289 290 292 293 290 288
247 252 252 251 254 258 260 263 265 267 269 271 273 275 277 277 275 275 275 275 274 274 275 275 277 278 279 279 276 275 275 276 277 278 280 283 286 288 289 290 291 291 290 289
Height
5905 5907 5907 5908 5909 5910 5911 5911 5911 5911 5909 5909 5909 5907 5906 5905 5904 5902 5900 5899 5898 5897 5895 5894 5893 5891 5890 5889 5887 5886 5885 5884 5883 5882 5881 5880 5879 5879 5879 5878 5878 5877 5877 5877
5906 5906 5908 5908 5909 5909 5910 5911 5910 5910 5909 5908 5908 5907 5906 5904 5904 5902 5900 5899 5897 5896 5895 5894 5892 5891 5890 5888 5887 5885 5884 5883 5882 5881 5880 5879 5878 5878 5877 5877 5876 5876 5876 5875
5905 5907 5907 5907 5907 5908 5909 5910 5909 5909 5908 5907 5906 5905 5904 5903 5903 5901 5900 5898 5897 5895 5894 5893 5892 5890 5889 5887 5886 5884 5883 5882 5880 5879 5879 5878 5877 5876 5876 5875 5875 5874 5874 5873
5904 5905 5906 5906 5906 5906 5908 5908 5907 5907 5907 5906 5907 5904 5903 5902 5901 5900 5899 5898 5896 5894 5893 5892 5890 5889 5887 5886 5884 5883 5882 5880 5879 5878 5877 5876 5875 5875 5874 5874 5873 5872 5871 5871
5902 5903 5903 5904 5905 5904 5905 5905 5905 5905 5904 5904 5905 5903 5902 5899 5899 5898 5896 5896 5894 5893 5891 5890 5889 5888 5886 5884 5883 5881 5880 5878 5877 5876 5875 5874 5873 5873 5872 5871 5871 5870 5869 5868
5899 5901 5901 5901 5902 5902 5902 5902 5902 5902 5902 5903 5903 5902 5900 5898 5897 5895 5893 5893 5893 5891 5890 5889 5887 5886 5884 5882 5881 5879 5878 5876 5875 5874 5873 5872 5871 5870 5869 5869 5868 5867 5866 5865
5897 5898 5898 5898 5899 5900 5900 5901 5901 5901 5901 5901 5901 5900 5898 5896 5895 5893 5892 5891 5890 5889 5888 5886 5885 5884 5882 5881 5879 5877 5876 5874 5873 5871 5870 5869 5868 5867 5866 5865 5865 5864 5863 5862
5894 5895 5895 5895 5895 5896 5898 5899 5900 5900 5900 5900 5898 5897 5896 5893 5892 5892 5890 5889 5888 5886 5885 5884 5883 5881 5880 5879 5877 5875 5873 5872 5870 5869 5867 5866 5865 5864 5863 5862 5861 5860 5859 5857
5891 5892 5892 5892 5892 5893 5893 5895 5897 5897 5896 5896 5895 5893 5891 5888 5888 5888 5887 5885 5885 5884 5882 5880 5879 5878 5877 5876 5874 5872 5871 5869 5867 5866 5864 5863 5861 5860 5859 5858 5856 5855 5854 5853
5887 5888 5890 5890 5889 5889 5890 5890 5892 5893 5892 5892 5892 5889 5887 5885 5884 5882 5881 5880 5880 5879 5878 5876 5875 5874 5873 5872 5871 5869 5867 5866 5864 5862 5861 5859 5858 5856 5855 5853 5852 5851 5849 5848
5882 5884 5886 5886 5886 5886 5886 5886 5886 5887 5888 5888 5888 5886 5883 5881 5880 5879 5877 5876 5875 5875 5873 5872 5870 5870 5867 5867 5866 5865 5863 5862 5860 5859 5857 5855 5853 5851 5850 5848 5847 5845 5844 5842
5877 5879 5879 5881 5881 5881 5882 5882 5882 5883 5882 5883 5883 5882 5877 5876 5875 5873 5872 5871 5870 5869 5868 5867 5866 5865 5864 5863 5862 5860 5859 5857 5856 5854 5852 5851 5849 5847 5845 5843 5841 5840 5839 5837
5872 5873 5874 5876 5878 5876 5875 5876 5877 5878 5879 5878 5878 5877 5873 5871 5870 5868 5866 5865 5865 5864 5863 5862 5861 5860 5859 5858 5857 5855 5854 5853 5851 5849 5847 5845 5844 5842 5840 5838 5837 5835 5833 5831
5865 5866 5868 5870 5870 5871 5871 5872 5872 5873 5873 5872 5872 5871 5868 5867 5865 5863 5860 5859 5859 5858 5857 5856 5855 5854 5854 5853 5851 5850 5849 5847 5846 5844 5842 5840 5839 5837 5835 5833 5831 5829 5827 5825
5858 5860 5861 5862 5863 5865 5865 5866 5867 5867 5866 5866 5865 5864 5863 5861 5858 5856 5855 5854 5853 5853 5852 5851 5850 5849 5848 5847 5846 5845 5843 5842 5841 5839 5837 5835 5833 5831 5829 5827 5825 5823 5821 5820
5851 5853 5854 5855 5856 5857 5858 5859 5860 5860 5860 5859 5859 5858 5856 5854 5852 5850 5850 5848 5848 5847 5846 5845 5844 5843 5842 5841 5840 5839 5838 5837 5835 5834 5832 5830 5828 5825 5823 5822 5820 5817 5815 5814
5844 5846 5847 5848 5849 5850 5851 5852 5853 5853 5853 5853 5852 5851 5849 5847 5845 5844 5844 5843 5841 5840 5839 5838 5838 5837 5836 5835 5834 5833 5832 5830 5829 5828 5826 5824 5821 5819 5818 5816 5814 5812 5810 5807
5837 5838 5839 5841 5843 5842 5845 5845 5846 5845 5845 5845 5844 5843 5841 5840 5839 5837 5836 5836 5835 5833 5831 5832 5831 5830 5830 5829 5828 5827 5825 5824 5823 5821 5820 5818 5816 5814 5812 5810 5808 5806 5803 5801
5830 5831 5832 5834 5835 5835 5836 5836 5837 5837 5837 5837 5835 5834 5833 5832 5830 5830 5829 5828 5827 5825 5824 5825 5824 5823 5822 5822 5821 5820 5819 5818 5816 5815 5814 5812 5810 5808 5805 5803 5802 5800 5797 5795
5822 5823 5824 5825 5826 5828 5829 5829 5829 5830 5828 5827 5826 5825 5825 5824 5823 5822 5821 5820 5819 5818 5817 5817 5816 5815 5815 5815 5814 5813 5812 5811 5810 5809 5807 5806 5803 5801 5799 5797 5795 5793 5791 5789
5814 5815 5816 5817 5818 5819 5820 5821 5822 5822 5820 5819 5818 5817 5816 5816 5815 5814 5813 5812 5811 5810 5809 5809 5808 5808 5807 5807 5806 5806 5805 5804 5803 5802 5800 5799 5797 5795 5793 5791 5789 5787 5785 5783
5806 5808 5808 5810 5811 5813 5813 5813 5814 5812 5811 5811 5810 5809 5808 5807 5806 5805 5805 5804 5803 5802 5801 5801 5800 5799 5799 5799 5798 5798 5797 5796 5796 5795 5793 5792 5790 5787 5786 5783 5781 5780 5778 5776
5798 5800 5800 5802 5803 5803 5804 5804 5804 5802 5802 5801 5800 5800 5799 5799 5798 5797 5796 5795 5795 5794 5793 5792 5791 5791 5790 5790 5790 5789 5789 5788 5787 5787 5786 5784 5783 5780 5778 5776 5775 5773 5771 5769
5789 5791 5792 5792 5792 5794 5795 5795 5795 5794 5794 5793 5792 5791 5791 5791 5789 5788 5788 5786 5785 5785 5785 5784 5783 5783 5782 5782 5781 5781 5780 5780 5779 5778 5778 5777 5775 5773 5771 5769 5767 5765 5764 5762
5780 5782 5783 5784 5785 5786 5786 5786 5786 5786 5786 5785 5784 5783 5783 5782 5781 5780 5779 5778 5777 5777 5776 5775 5775 5774 5773 5773 5773 5772 5772 5771 5771 5770 5770 5769 5768 5766 5765 5763 5760 5758 5756 5755
5772 5773 5774 5775 5776 5777 5777 5776 5777 5778 5778 5777 5776 5776 5775 5774 5773 5772 5770 5770 5770 5769 5768 5767 5766 5766 5765 5764 5764 5763 5763 5763 5762 5762 5762 5761 5760 5759 5757 5756 5754 5751 5750 5747